Regional Weather Roundup
Issued by NWS

Home | Current Version | Previous Version | Text Only | Print | Product List | Glossary Off
Versions: 1 2 3 4 5 6 7 8 9 10 11 12 13 14 15 16 17 18 19 20 21 22 23 24 25 26 27 28 29 30 31 32 33 34 35 36 37 38 39 40 41 42 43 44 45 46 47 48 49 50

000
ASUS43 KMKX 181521
RWRWI

WISCONSIN REGIONAL WEATHER ROUNDUP
NATIONAL WEATHER SERVICE MILWAUKEE/SULLIVAN WI
1000 AM CDT THU SEP 18 2014

NOTE: "FAIR" INDICATES FEW OR NO CLOUDS BELOW 12,000 FEET WITH NO
SIGNIFICANT WEATHER AND/OR OBSTRUCTIONS TO VISIBILITY.

WIZ001-002-006>008-014>016-023>028-181600-
NORTHWEST WISCONSIN

CITY           SKY/WX    TMP DP  RH WIND       PRES   REMARKS
SUPERIOR ARPT  CLOUDY    47  40  76 SE7       30.18R
ASHLAND        CLOUDY    45  40  82 E6        30.18S
HAYWARD        CLOUDY    48  45  89 SE7       30.15R
SIREN          CLOUDY    50  47  89 SE7       30.13S
RICE LAKE      CLOUDY    51  48  89 SE9       30.16S
LADYSMITH      CLOUDY    50  48  90 SE8       30.17S
EAU CLAIRE     CLOUDY    49  47  93 SE9       30.15R FOG
MENOMONIE      CLOUDY    50  49  97 E7        30.14S FOG
NEW RICHMOND   CLOUDY    51  51 100 SE5       30.12S FOG
OSCEOLA        CLOUDY    52  52 100 E8        30.14S FOG
$$

WIZ003>005-009-010-017-018-181600-
NORTH CENTRAL WISCONSIN

CITY           SKY/WX    TMP DP  RH WIND       PRES   REMARKS
WOODRUFF       CLOUDY    42  39  87 SE8       30.18R
RHINELANDER    CLOUDY    40  37  89 SE7       30.20R
EAGLE RIVER    CLOUDY    40  37  87 SE6       30.18S
LAND O LAKES   CLOUDY    41  35  81 S3        30.20R
PHILLIPS       CLOUDY    46  43  92 SE7       30.16S
TOMAHAWK       CLOUDY    43  40  89 SE5       30.19R
MEDFORD        CLOUDY    43  42  97 SE5       30.18R FOG
MERRILL        CLOUDY    43  41  93 SE6       30.20R
$$

WIZ029-030-035-036-043>047-181600-
CENTRAL WISCONSIN

CITY           SKY/WX    TMP DP  RH WIND       PRES   REMARKS
WAUSAU         CLOUDY    43  39  86 SE10      30.19R
MOSINEE        CLOUDY    43  43 100 E9        30.21R
MARSHFIELD     CLOUDY    45  43  93 SE12      30.19R FOG
STEVENS POINT  CLOUDY    42  39  88 E8        30.21R
WAUPACA        CLOUDY    48  43  83 NE6       30.22R
WAUTOMA        CLOUDY    47  44  89 E6        30.22R
WISC RAPIDS    CLOUDY    46  43  89 SE7       30.21R
CAMP DOUGLAS   CLOUDY    50  50 100 E8        30.18R FOG
$$

WIZ011>013-019>022-031-037>040-048>050-181600-
NORTHEAST WISCONSIN

CITY           SKY/WX    TMP DP  RH WIND       PRES   REMARKS
ANTIGO         CLOUDY    40  37  91 SE7       30.21R WCI  35
STURGEON BAY   CLOUDY    50  39  66 NE6       30.22R
GREEN BAY      CLOUDY    48  41  76 N7        30.22R
MANITOWOC      CLOUDY    50  44  80 N5        30.21R
APPLETON       CLOUDY    46  39  76 NE6       30.22R
CLINTONVILLE   CLOUDY    46  37  71 NE3       30.22S
OSHKOSH        CLOUDY    50  44  80 E7        30.20R
$$

WIZ032>034-041-042-053>061-181600-
SOUTHWEST WISCONSIN

CITY           SKY/WX    TMP DP  RH WIND       PRES   REMARKS
LA CROSSE      CLOUDY    53  50  89 SE8       30.16R
SPARTA         CLOUDY    51  50  95 SE6       30.18R FOG
VIROQUA        CLOUDY    51  51 100 E7        30.16S VSB 1/4
BOSCOBEL       CLOUDY    54  51  90 E3        30.18R
PRAIRIE DU CHI MOSUNNY   55  51  89 SE6       30.15S
PLATTEVILLE    FAIR      55  51  88 CALM      30.17R
$$

WIZ056-057-062-063-064-067-068-181600-
SOUTH CENTRAL WISCONSIN

CITY           SKY/WX    TMP DP  RH WIND       PRES   REMARKS
BARABOO/DELLS  CLOUDY    49  47  93 SE8       30.19R FOG
LONE ROCK      CLOUDY    56  51  84 E7        30.18R HAZE
WATERTOWN      CLOUDY    50  49  97 NE5       30.19S
MADISON        CLOUDY    50  49  96 E8        30.19R FOG
MIDDLETON      CLOUDY    52  52 100 E7        30.19R
MONROE         FOG       50  50 100 E8        30.17R VSB 1/4
JANESVILLE     CLOUDY    54  52  94 E7        30.17R FOG
$$

WIZ051-052-058>065-066-070>072-181600-
SOUTHEAST WISCONSIN

CITY           SKY/WX    TMP DP  RH WIND       PRES   REMARKS
MILWAUKEE      CLOUDY    55  50  83 N12       30.18R
WAUKESHA       CLOUDY    52  48  87 NE12      30.19R
MILWAUKEE/TIMM CLOUDY    54  46  76 N8        30.19R
RACINE         CLOUDY    57  52  83 N13       30.18R
BURLINGTON     CLOUDY    55  51  87 N6        30.17S
KENOSHA        CLOUDY    58  54  86 N7        30.17S
FOND DU LAC    CLOUDY    49  43  80 NE6       30.21R
SHEBOYGAN      CLOUDY    51  44  77 N7        30.20R
WEST BEND      CLOUDY    48  45  87 NE6       30.19S
JUNEAU         CLOUDY    48  46  91 NE3       30.21R
$$

LSZ147-162-181600-
LAKE SUPERIOR

STATION/POSITION TIME  TEMP    WIND        PRES    WAVE
                       AIR SEA DIR/SP/G            HT/PER
                 (UTC) (F)     (DEG/KT/KT) (MB)    (FT/S)
W MID LAKE BUOY  1450   44 46  130/ 12/ 14 1023.1S   1/ 5
DEVILS ISLAND    1500   44     110/ 12/ 15 1023.1R
PORT WING        1400   46      80/  4/  6 1021.7S
SAXON HARBOR     1400   44      70/  1/  5 1022.0S
$$

LMZ867-665-643>646-181600-
LAKE MICHIGAN

STATION/POSITION TIME  TEMP    WIND        PRES    WAVE
                       AIR SEA DIR/SP/G            HT/PER
                 (UTC) (F)     (DEG/KT/KT) (MB)    (FT/S)
N MID LAKE BUOY  1450   49 58   60/ 12/ 16 1022.7R   2/ 4
NORTHPORT PIER   1400   48      10/ 10/ 12 1022.7R
KEWAUNEE LAKESHO 1500   51      20/  7/ 12 1021.6R
SHEBOYGAN LAKESH 1500   48 48  350/ 12/ 13 1023.1R
PORT WASHINGTON  1440   53     360/  4/  7 1022.7R
ATWATER BUOY     1500   53     360/ 16/ 19 1022.7R
MILWAUKEE LAKESH 1500   53     350/ 11/ 14   N/A
S MID LAKE BUOY  1450   62 63   CALM  /  2 1021.0R   3/ 6
KENOSHA   LAKESH 1500   56     360/ 11/ 12 1021.0S
$$

TC  - TEMPERATURE IN CELSIUS
VSB - VISIBILITY IN STATUTE MILES
WCI - WIND CHILL INDEX
HX  - HEAT INDEX




USA.gov is the U.S. government's official web portal to all federal, state and local government web resources and services.